Station Historical Data
Daily Summary for October 12, 2017 Units:  English    Metric   Both
Next Day »
Daily Weekly Monthly Yearly Custom
  High: Low: Average:
Temperature: 65.0 °F 47.2 °F 54.8 °F
Dew Point: 34.9 °F 25.3 °F 29.1 °F
Humidity: 49% 26% 38%
Wind Speed: 12.0mph 0.0mph 1.6mph
Wind Gust: 20.0mph - -
Wind- - SE
Pressure: 30.11 in 30.02 in -
Precipitation: 0.00 in    
Historical Graphs
 
 
Tabular Data for October 12, 2017
Time Temperature Dew Point Pressure Wind Wind Speed Wind Gust Humidity Rainfall Rate (Hourly) solar Conditions
00:00 48.9 °F 26.8 °F 30.02 in East 2.0 mph 6.0 mph 42% 0.00 in 0.00 W/m2
00:05 48.9 °F 27.4 °F 30.02 in East 1.0 mph 6.0 mph 43% 0.00 in 0.00 W/m2
00:10 48.8 °F 27.3 °F 30.02 in Calm   7.0 mph 43% 0.00 in 0.00 W/m2
00:15 48.8 °F 27.3 °F 30.02 in East 2.0 mph 7.0 mph 43% 0.00 in 0.00 W/m2
00:20 48.6 °F 27.1 °F 30.02 in Calm   4.0 mph 43% 0.00 in 0.00 W/m2
00:25 48.6 °F 27.1 °F 30.02 in Calm   7.0 mph 43% 0.00 in 0.00 W/m2
00:30 48.5 °F 27.0 °F 30.02 in Calm   6.0 mph 43% 0.00 in 0.00 W/m2
00:35 48.5 °F 27.0 °F 30.03 in Calm   8.0 mph 43% 0.00 in 0.00 W/m2
00:40 48.4 °F 27.5 °F 30.02 in Calm   7.0 mph 44% 0.00 in 0.00 W/m2
00:45 48.4 °F 27.0 °F 30.02 in ESE 5.0 mph 8.0 mph 43% 0.00 in 0.00 W/m2
00:50 48.3 °F 27.4 °F 30.02 in Calm   11.0 mph 44% 0.00 in 0.00 W/m2
00:55 48.3 °F 27.4 °F 30.02 in Calm   9.0 mph 44% 0.00 in 0.00 W/m2
01:00 48.2 °F 27.3 °F 30.02 in Calm   6.0 mph 44% 0.00 in 0.00 W/m2
01:05 48.1 °F 27.8 °F 30.02 in East 1.0 mph 9.0 mph 45% 0.00 in 0.00 W/m2
01:10 48.1 °F 28.3 °F 30.02 in Calm   6.0 mph 46% 0.00 in 0.00 W/m2
01:15 48.1 °F 28.3 °F 30.02 in East 2.0 mph 8.0 mph 46% 0.00 in 0.00 W/m2
01:20 48.0 °F 28.2 °F 30.02 in East 1.0 mph 8.0 mph 46% 0.00 in 0.00 W/m2
01:25 47.9 °F 28.1 °F 30.02 in Calm   9.0 mph 46% 0.00 in 0.00 W/m2
01:30 47.8 °F 28.0 °F 30.02 in East 5.0 mph 9.0 mph 46% 0.00 in 0.00 W/m2
01:35 47.8 °F 28.6 °F 30.02 in Calm   8.0 mph 47% 0.00 in 0.00 W/m2
01:40 47.7 °F 28.5 °F 30.02 in Calm   9.0 mph 47% 0.00 in 0.00 W/m2
01:45 47.6 °F 28.4 °F 30.02 in East 1.0 mph 8.0 mph 47% 0.00 in 0.00 W/m2
01:50 47.5 °F 28.8 °F 30.02 in Calm   8.0 mph 48% 0.00 in 0.00 W/m2
01:55 47.5 °F 28.8 °F 30.02 in ESE 6.0 mph 7.0 mph 48% 0.00 in 0.00 W/m2
02:00 47.5 °F 28.8 °F 30.02 in ESE 5.0 mph 8.0 mph 48% 0.00 in 0.00 W/m2
02:05 47.4 °F 28.7 °F 30.02 in ESE 4.0 mph 7.0 mph 48% 0.00 in 0.00 W/m2
02:10 47.4 °F 29.2 °F 30.02 in Calm     49% 0.00 in 0.00 W/m2
02:15 47.4 °F 29.2 °F 30.02 in Calm   11.0 mph 49% 0.00 in 0.00 W/m2
02:20 47.3 °F 29.1 °F 30.02 in East 7.0 mph 9.0 mph 49% 0.00 in 0.00 W/m2
02:25 47.3 °F 29.1 °F 30.03 in ESE 7.0 mph 9.0 mph 49% 0.00 in 0.00 W/m2
02:30 47.3 °F 28.6 °F 30.03 in East 6.0 mph 12.0 mph 48% 0.00 in 0.00 W/m2
02:35 47.3 °F 28.6 °F 30.03 in Calm   11.0 mph 48% 0.00 in 0.00 W/m2
02:40 47.3 °F 28.6 °F 30.03 in East 5.0 mph 12.0 mph 48% 0.00 in 0.00 W/m2
02:50 47.2 °F 28.0 °F 30.03 in East 2.0 mph 7.0 mph 47% 0.00 in 0.00 W/m2
02:55 47.2 °F 28.0 °F 30.03 in Calm   8.0 mph 47% 0.00 in 0.00 W/m2
03:00 47.2 °F 27.5 °F 30.02 in East 1.0 mph 11.0 mph 46% 0.00 in 0.00 W/m2
03:05 47.2 °F 27.5 °F 30.02 in East 1.0 mph 9.0 mph 46% 0.00 in 0.00 W/m2
03:10 47.2 °F 27.0 °F 30.02 in East 1.0 mph 9.0 mph 45% 0.00 in 0.00 W/m2
03:15 47.2 °F 27.0 °F 30.02 in East 1.0 mph 8.0 mph 45% 0.00 in 0.00 W/m2
03:20 47.2 °F 27.0 °F 30.02 in East 5.0 mph 5.0 mph 45% 0.00 in 0.00 W/m2
03:26 47.2 °F 27.0 °F 30.02 in East 1.0 mph 1.0 mph 45% 0.00 in 0.00 W/m2
03:31 47.2 °F 27.0 °F 30.02 in East 7.0 mph 12.0 mph 45% 0.00 in 0.00 W/m2
03:36 47.2 °F 26.4 °F 30.02 in East 6.0 mph 6.0 mph 44% 0.00 in 0.00 W/m2
03:41 47.2 °F 25.9 °F 30.02 in Calm   7.0 mph 43% 0.00 in 0.00 W/m2
03:46 47.2 °F 25.9 °F 30.02 in Calm   6.0 mph 43% 0.00 in 0.00 W/m2
03:51 47.2 °F 25.3 °F 30.02 in East 4.0 mph 8.0 mph 42% 0.00 in 0.00 W/m2
03:56 47.2 °F 25.3 °F 30.02 in East 1.0 mph 6.0 mph 42% 0.00 in 0.00 W/m2
04:01 47.2 °F 25.9 °F 30.02 in East 4.0 mph 7.0 mph 43% 0.00 in 0.00 W/m2
04:06 47.3 °F 26.0 °F 30.02 in East 2.0 mph 7.0 mph 43% 0.00 in 0.00 W/m2
04:11 47.3 °F 26.0 °F 30.02 in Calm   11.0 mph 43% 0.00 in 0.00 W/m2
04:16 47.3 °F 25.4 °F 30.02 in East 1.0 mph 9.0 mph 42% 0.00 in 0.00 W/m2
04:21 47.4 °F 26.0 °F 30.02 in Calm   6.0 mph 43% 0.00 in 0.00 W/m2
04:26 47.4 °F 25.5 °F 30.02 in Calm   5.0 mph 42% 0.00 in 0.00 W/m2
04:31 47.5 °F 26.1 °F 30.02 in ESE 1.0 mph 9.0 mph 43% 0.00 in 0.00 W/m2
04:37 47.5 °F 26.1 °F 30.02 in ESE 1.0 mph 7.0 mph 43% 0.00 in 0.00 W/m2
04:42 47.6 °F 25.7 °F 30.03 in East 1.0 mph 9.0 mph 42% 0.00 in 0.00 W/m2
04:52 47.7 °F 26.3 °F 30.03 in Calm   9.0 mph 43% 0.00 in 0.00 W/m2
04:57 47.7 °F 25.8 °F 30.03 in Calm   12.0 mph 42% 0.00 in 0.00 W/m2
05:02 47.8 °F 25.8 °F 30.03 in Calm   9.0 mph 42% 0.00 in 0.00 W/m2
05:07 47.8 °F 25.8 °F 30.03 in East 9.0 mph 9.0 mph 42% 0.00 in 0.00 W/m2
05:12 47.9 °F 25.9 °F 30.03 in East 8.0 mph 8.0 mph 42% 0.00 in 0.00 W/m2
05:17 48.0 °F 26.0 °F 30.03 in ESE 8.0 mph 8.0 mph 42% 0.00 in 0.00 W/m2
05:22 48.1 °F 26.1 °F 30.03 in Calm   12.0 mph 42% 0.00 in 0.00 W/m2
05:27 48.1 °F 26.1 °F 30.04 in Calm   11.0 mph 42% 0.00 in 0.00 W/m2
05:32 48.2 °F 26.2 °F 30.04 in ESE 4.0 mph 9.0 mph 42% 0.00 in 0.00 W/m2
05:37 48.4 °F 26.4 °F 30.03 in ESE 7.0 mph 11.0 mph 42% 0.00 in 0.00 W/m2
05:42 48.5 °F 26.5 °F 30.03 in East 2.0 mph 11.0 mph 42% 0.00 in 0.00 W/m2
05:47 48.5 °F 26.5 °F 30.03 in East 4.0 mph 11.0 mph 42% 0.00 in 0.00 W/m2
05:52 48.6 °F 26.6 °F 30.03 in ESE 1.0 mph 14.0 mph 42% 0.00 in 0.00 W/m2
05:57 48.7 °F 26.6 °F 30.03 in ESE 8.0 mph 13.0 mph 42% 0.00 in 0.00 W/m2
06:02 48.8 °F 26.2 °F 30.03 in East 5.0 mph 13.0 mph 41% 0.00 in 0.00 W/m2
06:07 48.9 °F 26.8 °F 30.03 in ESE 6.0 mph 14.0 mph 42% 0.00 in 0.00 W/m2
06:12 49.0 °F 26.9 °F 30.03 in Calm   13.0 mph 42% 0.00 in 0.00 W/m2
06:17 49.1 °F 26.4 °F 30.04 in East 12.0 mph 13.0 mph 41% 0.00 in 0.00 W/m2
06:22 49.2 °F 26.5 °F 30.04 in ESE 12.0 mph 12.0 mph 41% 0.00 in 0.00 W/m2
06:27 49.2 °F 26.5 °F 30.04 in ESE 4.0 mph 15.0 mph 41% 0.00 in 0.00 W/m2
06:32 49.3 °F 26.6 °F 30.04 in East 11.0 mph 14.0 mph 41% 0.00 in 0.00 W/m2
06:37 49.4 °F 26.7 °F 30.04 in East 4.0 mph 12.0 mph 41% 0.00 in 0.00 W/m2
06:42 49.5 °F 26.8 °F 30.04 in ESE 1.0 mph 20.0 mph 41% 0.00 in 0.00 W/m2
06:47 49.6 °F 26.9 °F 30.04 in ESE 7.0 mph 9.0 mph 41% 0.00 in 0.00 W/m2
06:52 49.6 °F 26.9 °F 30.04 in East 5.0 mph 8.0 mph 41% 0.00 in 0.00 W/m2
06:57 49.7 °F 27.0 °F 30.05 in East 2.0 mph 13.0 mph 41% 0.00 in 0.00 W/m2
07:02 49.8 °F 27.1 °F 30.05 in ESE 4.0 mph 9.0 mph 41% 0.00 in 0.00 W/m2
07:07 49.9 °F 27.1 °F 30.05 in East 1.0 mph 8.0 mph 41% 0.00 in 5.00 W/m2
07:12 49.9 °F 27.1 °F 30.05 in Calm   15.0 mph 41% 0.00 in 7.00 W/m2
07:17 49.9 °F 27.1 °F 30.05 in ESE 6.0 mph 9.0 mph 41% 0.00 in 11.00 W/m2
07:23 49.9 °F 27.1 °F 30.06 in ESE 5.0 mph 13.0 mph 41% 0.00 in 14.00 W/m2
07:28 49.9 °F 27.1 °F 30.06 in East 6.0 mph 12.0 mph 41% 0.00 in 18.00 W/m2
07:38 49.9 °F 27.1 °F 30.06 in ESE 1.0 mph 14.0 mph 41% 0.00 in 28.00 W/m2
07:43 50.0 °F 27.2 °F 30.06 in East 2.0 mph 13.0 mph 41% 0.00 in 39.00 W/m2
07:48 50.0 °F 27.2 °F 30.07 in SE 2.0 mph 12.0 mph 41% 0.00 in 51.00 W/m2
07:53 50.1 °F 27.3 °F 30.07 in East 5.0 mph 12.0 mph 41% 0.00 in 63.00 W/m2
07:58 50.1 °F 27.3 °F 30.07 in Calm   13.0 mph 41% 0.00 in 77.00 W/m2
08:03 50.2 °F 27.4 °F 30.07 in ESE 4.0 mph 12.0 mph 41% 0.00 in 95.00 W/m2
08:08 50.3 °F 27.5 °F 30.07 in East 2.0 mph 11.0 mph 41% 0.00 in 113.00 W/m2
08:13 50.4 °F 27.6 °F 30.08 in East 4.0 mph 13.0 mph 41% 0.00 in 132.00 W/m2
08:18 50.5 °F 27.7 °F 30.08 in ESE 4.0 mph 15.0 mph 41% 0.00 in 151.00 W/m2
08:23 50.6 °F 27.8 °F 30.08 in Calm   5.0 mph 41% 0.00 in 169.00 W/m2
08:28 50.7 °F 27.9 °F 30.08 in ESE 4.0 mph 12.0 mph 41% 0.00 in 188.00 W/m2
08:33 50.8 °F 28.0 °F 30.08 in ESE 2.0 mph 11.0 mph 41% 0.00 in 202.00 W/m2
08:38 51.0 °F 28.1 °F 30.09 in ESE 4.0 mph 11.0 mph 41% 0.00 in 229.00 W/m2
08:43 51.2 °F 28.9 °F 30.09 in Calm   12.0 mph 42% 0.00 in 248.00 W/m2
08:48 51.3 °F 28.4 °F 30.09 in East 4.0 mph 11.0 mph 41% 0.00 in 271.00 W/m2
08:53 51.5 °F 29.2 °F 30.09 in ESE 2.0 mph 8.0 mph 42% 0.00 in 288.00 W/m2
08:58 51.8 °F 28.9 °F 30.09 in ESE 5.0 mph 7.0 mph 41% 0.00 in 304.00 W/m2
09:03 51.9 °F 29.5 °F 30.09 in Calm   8.0 mph 42% 0.00 in 318.00 W/m2
09:08 52.2 °F 29.2 °F 30.09 in East 4.0 mph 11.0 mph 41% 0.00 in 338.00 W/m2
09:13 52.4 °F 29.4 °F 30.09 in East 2.0 mph 8.0 mph 41% 0.00 in 353.00 W/m2
09:18 52.7 °F 29.7 °F 30.10 in Calm   5.0 mph 41% 0.00 in 366.00 W/m2
09:23 53.1 °F 29.4 °F 30.10 in Calm   6.0 mph 40% 0.00 in 380.00 W/m2
09:29 53.4 °F 29.7 °F 30.10 in Calm   7.0 mph 40% 0.00 in 397.00 W/m2
09:34 53.8 °F 30.7 °F 30.10 in Calm   2.0 mph 41% 0.00 in 411.00 W/m2
09:39 54.1 °F 30.9 °F 30.10 in Calm   4.0 mph 41% 0.00 in 422.00 W/m2
09:44 54.3 °F 31.7 °F 30.10 in Calm     42% 0.00 in 438.00 W/m2
09:49 54.5 °F 31.9 °F 30.10 in Calm   1.0 mph 42% 0.00 in 452.00 W/m2
09:54 54.6 °F 32.0 °F 30.10 in Calm     42% 0.00 in 464.00 W/m2
09:59 54.8 °F 32.2 °F 30.10 in Calm     42% 0.00 in 476.00 W/m2
10:04 55.0 °F 33.5 °F 30.11 in Calm     44% 0.00 in 492.00 W/m2
10:09 55.2 °F 31.9 °F 30.11 in Calm     41% 0.00 in 504.00 W/m2
10:14 55.3 °F 31.4 °F 30.11 in Calm     40% 0.00 in 513.00 W/m2
10:19 55.5 °F 31.6 °F 30.10 in Calm     40% 0.00 in 527.00 W/m2
10:24 55.9 °F 30.7 °F 30.10 in Calm     38% 0.00 in 540.00 W/m2
10:29 56.4 °F 31.1 °F 30.10 in Calm     38% 0.00 in 552.00 W/m2
10:34 56.9 °F 31.6 °F 30.10 in Calm     38% 0.00 in 561.00 W/m2
10:39 57.3 °F 33.2 °F 30.10 in Calm     40% 0.00 in 571.00 W/m2
10:44 57.6 °F 32.2 °F 30.11 in Calm     38% 0.00 in 580.00 W/m2
10:49 57.9 °F 33.1 °F 30.10 in Calm   6.0 mph 39% 0.00 in 592.00 W/m2
10:54 58.4 °F 32.9 °F 30.10 in Calm   1.0 mph 38% 0.00 in 601.00 W/m2
10:59 58.6 °F 32.4 °F 30.10 in Calm     37% 0.00 in 608.00 W/m2
11:04 59.0 °F 33.5 °F 30.10 in Calm   7.0 mph 38% 0.00 in 621.00 W/m2
11:09 59.5 °F 33.9 °F 30.10 in Calm   7.0 mph 38% 0.00 in 628.00 W/m2
11:14 60.0 °F 32.3 °F 30.10 in SE 4.0 mph 6.0 mph 35% 0.00 in 635.00 W/m2
11:19 60.3 °F 32.6 °F 30.10 in Calm   7.0 mph 35% 0.00 in 643.00 W/m2
11:24 60.7 °F 33.6 °F 30.10 in Calm   5.0 mph 36% 0.00 in 652.00 W/m2
11:25 60.7 °F 32.9 °F 30.10 in Calm   5.0 mph 35% 0.00 in 652.00 W/m2
11:30 61.3 °F 33.4 °F 30.10 in Calm   5.0 mph 35% 0.00 in 656.00 W/m2
11:35 62.0 °F 32.6 °F 30.10 in Calm   6.0 mph 33% 0.00 in 661.00 W/m2
11:40 62.4 °F 33.7 °F 30.10 in Calm   5.0 mph 34% 0.00 in 670.00 W/m2
11:45 62.7 °F 33.2 °F 30.10 in Calm   3.0 mph 33% 0.00 in 675.00 W/m2
11:50 62.9 °F 33.4 °F 30.10 in Calm   6.0 mph 33% 0.00 in 686.00 W/m2
11:55 63.1 °F 33.6 °F 30.10 in Calm   1.0 mph 33% 0.00 in 687.00 W/m2
12:00 63.2 °F 33.6 °F 30.10 in SW 2.0 mph 4.0 mph 33% 0.00 in 693.00 W/m2
12:05 63.3 °F 33.0 °F 30.10 in Calm   3.0 mph 32% 0.00 in 696.00 W/m2
12:10 63.2 °F 32.9 °F 30.10 in Calm   5.0 mph 32% 0.00 in 698.00 W/m2
12:15 63.1 °F 33.6 °F 30.10 in Calm   5.0 mph 33% 0.00 in 700.00 W/m2
12:20 63.2 °F 34.4 °F 30.10 in WNW 1.0 mph 2.0 mph 34% 0.00 in 703.00 W/m2
12:25 63.3 °F 33.0 °F 30.10 in Calm     32% 0.00 in 707.00 W/m2
12:30 63.3 °F 33.0 °F 30.10 in Calm   4.0 mph 32% 0.00 in 708.00 W/m2
12:35 63.3 °F 33.7 °F 30.10 in WSW 4.0 mph 5.0 mph 33% 0.00 in 710.00 W/m2
12:37 63.3 °F 33.7 °F 30.10 in Calm   4.0 mph 33% 0.00 in 710.00 W/m2
12:42 63.4 °F 33.0 °F 30.10 in Calm     32% 0.00 in 698.00 W/m2
12:46 63.5 °F 33.9 °F 30.10 in Calm   3.0 mph 33% 0.00 in 701.00 W/m2
12:51 63.6 °F 34.0 °F 30.10 in Calm   1.0 mph 33% 0.00 in 703.00 W/m2
12:56 63.6 °F 33.2 °F 30.10 in West 6.0 mph 7.0 mph 32% 0.00 in 701.00 W/m2
13:01 63.7 °F 34.1 °F 30.10 in Calm   3.0 mph 33% 0.00 in 700.00 W/m2
13:06 63.8 °F 34.9 °F 30.10 in Calm   6.0 mph 34% 0.00 in 700.00 W/m2
13:11 63.9 °F 33.5 °F 30.09 in WSW 4.0 mph 6.0 mph 32% 0.00 in 694.00 W/m2
13:16 64.0 °F 33.6 °F 30.09 in Calm     32% 0.00 in 701.00 W/m2
13:22 64.2 °F 33.0 °F 30.09 in WSW 2.0 mph 6.0 mph 31% 0.00 in 698.00 W/m2
13:27 64.4 °F 33.1 °F 30.09 in Calm   5.0 mph 31% 0.00 in 694.00 W/m2
13:32 64.5 °F 33.2 °F 30.09 in Calm   5.0 mph 31% 0.00 in 686.00 W/m2
13:37 64.7 °F 33.4 °F 30.09 in Calm   5.0 mph 31% 0.00 in 687.00 W/m2
13:42 64.7 °F 32.6 °F 30.09 in Calm   4.0 mph 30% 0.00 in 684.00 W/m2
13:47 64.7 °F 32.6 °F 30.09 in West 3.0 mph 6.0 mph 30% 0.00 in 673.00 W/m2
13:52 64.7 °F 32.6 °F 30.09 in West 4.0 mph 6.0 mph 30% 0.00 in 671.00 W/m2
13:53 64.6 °F 32.5 °F 30.09 in Calm   6.0 mph 30% 0.00 in 670.00 W/m2
13:58 64.5 °F 32.4 °F 30.09 in Calm   6.0 mph 30% 0.00 in 671.00 W/m2
14:03 64.5 °F 32.4 °F 30.09 in Calm   1.0 mph 30% 0.00 in 656.00 W/m2
14:08 64.3 °F 32.2 °F 30.09 in West 5.0 mph 8.0 mph 30% 0.00 in 654.00 W/m2
14:13 64.3 °F 32.2 °F 30.08 in West 6.0 mph 11.0 mph 30% 0.00 in 645.00 W/m2
14:18 64.3 °F 31.4 °F 30.08 in WSW 1.0 mph 4.0 mph 29% 0.00 in 642.00 W/m2
14:23 64.3 °F 31.4 °F 30.08 in WSW 2.0 mph 2.0 mph 29% 0.00 in 628.00 W/m2
14:28 64.4 °F 31.5 °F 30.08 in Calm   1.0 mph 29% 0.00 in 619.00 W/m2
14:33 64.5 °F 31.6 °F 30.08 in Calm   5.0 mph 29% 0.00 in 613.00 W/m2
14:38 64.7 °F 31.7 °F 30.08 in Calm   5.0 mph 29% 0.00 in 603.00 W/m2
14:43 64.8 °F 31.0 °F 30.08 in WSW 3.0 mph 3.0 mph 28% 0.00 in 596.00 W/m2
14:48 64.8 °F 31.0 °F 30.08 in Calm   6.0 mph 28% 0.00 in 587.00 W/m2
14:53 64.9 °F 31.0 °F 30.08 in Calm   8.0 mph 28% 0.00 in 577.00 W/m2
14:58 65.0 °F 30.2 °F 30.08 in Calm   5.0 mph 27% 0.00 in 564.00 W/m2
15:03 64.9 °F 31.0 °F 30.08 in Calm   1.0 mph 28% 0.00 in 561.00 W/m2
15:08 64.9 °F 30.1 °F 30.08 in Calm   1.0 mph 27% 0.00 in 541.00 W/m2
15:13 64.9 °F 31.0 °F 30.08 in West 5.0 mph 5.0 mph 28% 0.00 in 536.00 W/m2
15:18 65.0 °F 31.1 °F 30.08 in Calm   5.0 mph 28% 0.00 in 520.00 W/m2
15:23 65.0 °F 32.0 °F 30.08 in West 5.0 mph 5.0 mph 29% 0.00 in 510.00 W/m2
15:28 65.0 °F 30.2 °F 30.08 in Calm   5.0 mph 27% 0.00 in 497.00 W/m2
15:33 64.9 °F 31.0 °F 30.08 in West 3.0 mph 5.0 mph 28% 0.00 in 487.00 W/m2
15:38 64.9 °F 30.1 °F 30.08 in West 2.0 mph 6.0 mph 27% 0.00 in 471.00 W/m2
15:44 64.8 °F 30.1 °F 30.08 in Calm   6.0 mph 27% 0.00 in 464.00 W/m2
15:49 64.6 °F 29.9 °F 30.08 in WNW 1.0 mph 5.0 mph 27% 0.00 in 450.00 W/m2
15:54 64.5 °F 28.9 °F 30.08 in Calm   7.0 mph 26% 0.00 in 434.00 W/m2
15:59 64.3 °F 29.6 °F 30.08 in Calm   7.0 mph 27% 0.00 in 422.00 W/m2
16:04 64.1 °F 29.5 °F 30.08 in WNW 4.0 mph 4.0 mph 27% 0.00 in 406.00 W/m2
16:09 64.0 °F 28.5 °F 30.08 in Calm   2.0 mph 26% 0.00 in 388.00 W/m2
16:14 63.8 °F 28.3 °F 30.08 in Calm     26% 0.00 in 376.00 W/m2
16:19 63.8 °F 28.3 °F 30.08 in West 1.0 mph 6.0 mph 26% 0.00 in 362.00 W/m2
16:24 63.7 °F 28.2 °F 30.08 in Calm     26% 0.00 in 346.00 W/m2
16:29 63.5 °F 28.0 °F 30.08 in Calm   5.0 mph 26% 0.00 in 332.00 W/m2
16:34 63.5 °F 28.0 °F 30.08 in Calm     26% 0.00 in 318.00 W/m2
16:39 63.4 °F 27.9 °F 30.08 in Calm   4.0 mph 26% 0.00 in 302.00 W/m2
16:44 63.3 °F 27.9 °F 30.08 in Calm   6.0 mph 26% 0.00 in 287.00 W/m2
16:45 63.3 °F 27.9 °F 30.08 in Calm   6.0 mph 26% 0.00 in 281.00 W/m2
16:50 63.2 °F 28.7 °F 30.08 in Calm   2.0 mph 27% 0.00 in 265.00 W/m2
16:52 63.2 °F 27.8 °F 30.08 in Calm     26% 0.00 in 260.00 W/m2
16:57 63.1 °F 27.7 °F 30.08 in Calm     26% 0.00 in 246.00 W/m2
17:02 63.0 °F 27.6 °F 30.08 in Calm   6.0 mph 26% 0.00 in 230.00 W/m2
17:07 62.9 °F 27.5 °F 30.08 in Calm   1.0 mph 26% 0.00 in 214.00 W/m2
17:12 62.8 °F 28.4 °F 30.08 in Calm     27% 0.00 in 195.00 W/m2
17:17 62.6 °F 27.3 °F 30.08 in Calm     26% 0.00 in 176.00 W/m2
17:22 62.5 °F 27.2 °F 30.08 in Calm     26% 0.00 in 155.00 W/m2
17:27 62.3 °F 27.0 °F 30.08 in WNW 1.0 mph 1.0 mph 26% 0.00 in 135.00 W/m2
17:32 62.1 °F 28.6 °F 30.08 in Calm     28% 0.00 in 116.00 W/m2
17:37 61.9 °F 28.5 °F 30.08 in Calm     28% 0.00 in 100.00 W/m2
17:42 61.7 °F 28.3 °F 30.08 in Calm     28% 0.00 in 83.00 W/m2
17:47 61.6 °F 29.9 °F 30.08 in Calm     30% 0.00 in 67.00 W/m2
17:52 61.4 °F 29.7 °F 30.08 in Calm     30% 0.00 in 53.00 W/m2
17:57 61.2 °F 29.5 °F 30.08 in Calm     30% 0.00 in 40.00 W/m2
18:02 60.9 °F 30.1 °F 30.08 in Calm     31% 0.00 in 30.00 W/m2
18:07 60.3 °F 29.6 °F 30.08 in Calm     31% 0.00 in 21.00 W/m2
18:12 59.7 °F 29.8 °F 30.08 in Calm     32% 0.00 in 16.00 W/m2
18:17 59.1 °F 30.0 °F 30.08 in Calm     33% 0.00 in 14.00 W/m2
18:22 58.6 °F 29.6 °F 30.08 in Calm     33% 0.00 in 11.00 W/m2
18:27 58.1 °F 29.9 °F 30.08 in Calm     34% 0.00 in 7.00 W/m2
18:32 57.6 °F 29.5 °F 30.09 in Calm     34% 0.00 in 5.00 W/m2
18:37 57.1 °F 29.0 °F 30.08 in Calm     34% 0.00 in 0.00 W/m2
18:42 56.6 °F 29.3 °F 30.09 in Calm     35% 0.00 in 0.00 W/m2
18:47 56.1 °F 28.8 °F 30.09 in Calm     35% 0.00 in 0.00 W/m2
18:53 55.7 °F 28.5 °F 30.09 in Calm   2.0 mph 35% 0.00 in 0.00 W/m2
18:58 55.1 °F 28.6 °F 30.09 in WNW 3.0 mph 4.0 mph 36% 0.00 in 0.00 W/m2
19:03 54.8 °F 28.4 °F 30.09 in Calm     36% 0.00 in 0.00 W/m2
19:08 54.6 °F 28.2 °F 30.09 in Calm     36% 0.00 in 0.00 W/m2
19:13 54.4 °F 28.0 °F 30.09 in Calm     36% 0.00 in 0.00 W/m2
19:18 54.1 °F 27.8 °F 30.09 in Calm     36% 0.00 in 0.00 W/m2
19:23 53.9 °F 28.2 °F 30.10 in Calm     37% 0.00 in 0.00 W/m2
19:28 53.7 °F 28.1 °F 30.10 in Calm     37% 0.00 in 0.00 W/m2
19:33 53.5 °F 27.9 °F 30.10 in Calm     37% 0.00 in 0.00 W/m2
19:38 53.4 °F 27.8 °F 30.10 in Calm     37% 0.00 in 0.00 W/m2
19:43 53.2 °F 27.6 °F 30.10 in Calm     37% 0.00 in 0.00 W/m2
19:48 53.1 °F 27.5 °F 30.10 in Calm     37% 0.00 in 0.00 W/m2
19:53 53.0 °F 27.4 °F 30.10 in Calm     37% 0.00 in 0.00 W/m2
19:58 52.9 °F 27.4 °F 30.11 in Calm     37% 0.00 in 0.00 W/m2
20:03 52.8 °F 27.3 °F 30.11 in Calm     37% 0.00 in 0.00 W/m2
20:08 52.8 °F 27.3 °F 30.11 in Calm     37% 0.00 in 0.00 W/m2
20:13 52.9 °F 27.4 °F 30.11 in Calm     37% 0.00 in 0.00 W/m2
20:18 52.9 °F 26.7 °F 30.11 in Calm     36% 0.00 in 0.00 W/m2
20:23 53.0 °F 27.4 °F 30.11 in Calm     37% 0.00 in 0.00 W/m2
20:28 53.0 °F 26.8 °F 30.11 in Calm     36% 0.00 in 0.00 W/m2
20:33 53.1 °F 27.5 °F 30.11 in Calm     37% 0.00 in 0.00 W/m2
20:38 53.1 °F 27.5 °F 30.11 in Calm     37% 0.00 in 0.00 W/m2
20:43 53.0 °F 27.4 °F 30.11 in Calm     37% 0.00 in 0.00 W/m2
20:48 53.0 °F 27.4 °F 30.11 in Calm     37% 0.00 in 0.00 W/m2
20:53 52.9 °F 27.4 °F 30.11 in Calm     37% 0.00 in 0.00 W/m2
20:58 52.9 °F 27.4 °F 30.11 in NW 1.0 mph 4.0 mph 37% 0.00 in 0.00 W/m2
21:03 52.8 °F 27.9 °F 30.11 in NNW 3.0 mph 6.0 mph 38% 0.00 in 0.00 W/m2
21:08 52.8 °F 27.9 °F 30.11 in NNE 4.0 mph 5.0 mph 38% 0.00 in 0.00 W/m2
21:13 52.7 °F 27.8 °F 30.11 in Calm   5.0 mph 38% 0.00 in 0.00 W/m2
21:18 52.6 °F 27.7 °F 30.11 in ENE 1.0 mph 6.0 mph 38% 0.00 in 0.00 W/m2
21:23 52.6 °F 28.4 °F 30.11 in Calm   6.0 mph 39% 0.00 in 0.00 W/m2
21:28 52.5 °F 28.3 °F 30.11 in East 4.0 mph 10.0 mph 39% 0.00 in 0.00 W/m2
21:33 52.5 °F 28.3 °F 30.11 in East 2.0 mph 9.0 mph 39% 0.00 in 0.00 W/m2
21:38 52.5 °F 28.9 °F 30.11 in East 5.0 mph 7.0 mph 40% 0.00 in 0.00 W/m2
21:43 52.5 °F 28.9 °F 30.11 in East 2.0 mph 11.0 mph 40% 0.00 in 0.00 W/m2
21:48 52.5 °F 28.9 °F 30.11 in East 4.0 mph 8.0 mph 40% 0.00 in 0.00 W/m2
21:53 52.5 °F 28.9 °F 30.11 in East 6.0 mph 7.0 mph 40% 0.00 in 0.00 W/m2
21:58 52.6 °F 29.0 °F 30.11 in Calm   8.0 mph 40% 0.00 in 0.00 W/m2
22:03 52.6 °F 29.0 °F 30.11 in East 5.0 mph 11.0 mph 40% 0.00 in 0.00 W/m2
22:09 52.6 °F 29.0 °F 30.11 in East 1.0 mph 9.0 mph 40% 0.00 in 0.00 W/m2
22:14 52.6 °F 29.0 °F 30.11 in East 1.0 mph 7.0 mph 40% 0.00 in 0.00 W/m2
22:19 52.5 °F 28.9 °F 30.11 in East 1.0 mph 8.0 mph 40% 0.00 in 0.00 W/m2
22:24 52.5 °F 28.9 °F 30.11 in ESE 5.0 mph 11.0 mph 40% 0.00 in 0.00 W/m2
22:29 52.5 °F 28.9 °F 30.11 in East 1.0 mph 9.0 mph 40% 0.00 in 0.00 W/m2
22:34 52.4 °F 28.8 °F 30.11 in East 1.0 mph 9.0 mph 40% 0.00 in 0.00 W/m2
22:39 52.5 °F 29.5 °F 30.11 in Calm   8.0 mph 41% 0.00 in 0.00 W/m2
22:44 52.5 °F 28.9 °F 30.11 in Calm   8.0 mph 40% 0.00 in 0.00 W/m2
22:49 52.5 °F 28.9 °F 30.11 in East 2.0 mph 8.0 mph 40% 0.00 in 0.00 W/m2
22:54 52.4 °F 28.8 °F 30.11 in East 4.0 mph 6.0 mph 40% 0.00 in 0.00 W/m2
22:59 52.4 °F 28.8 °F 30.11 in East 2.0 mph 7.0 mph 40% 0.00 in 0.00 W/m2
23:04 52.3 °F 28.7 °F 30.11 in East 6.0 mph 8.0 mph 40% 0.00 in 0.00 W/m2
23:09 52.3 °F 28.7 °F 30.11 in Calm   9.0 mph 40% 0.00 in 0.00 W/m2
23:14 52.2 °F 29.2 °F 30.11 in East 2.0 mph 7.0 mph 41% 0.00 in 0.00 W/m2
23:19 52.1 °F 29.1 °F 30.11 in East 2.0 mph 8.0 mph 41% 0.00 in 0.00 W/m2
23:24 52.1 °F 28.5 °F 30.11 in East 5.0 mph 8.0 mph 40% 0.00 in 0.00 W/m2
23:29 52.1 °F 28.5 °F 30.11 in ESE 5.0 mph 9.0 mph 40% 0.00 in 0.00 W/m2
23:34 52.0 °F 29.0 °F 30.11 in ESE 2.0 mph 7.0 mph 41% 0.00 in 0.00 W/m2
23:39 52.0 °F 29.0 °F 30.11 in Calm   8.0 mph 41% 0.00 in 0.00 W/m2
23:44 51.9 °F 29.0 °F 30.11 in Calm   5.0 mph 41% 0.00 in 0.00 W/m2
23:49 51.9 °F 29.0 °F 30.11 in ESE 8.0 mph 8.0 mph 41% 0.00 in 0.00 W/m2
23:54 51.8 °F 28.9 °F 30.11 in ESE 1.0 mph 7.0 mph 41% 0.00 in 0.00 W/m2
23:59 51.7 °F 28.8 °F 30.11 in ESE 1.0 mph 5.0 mph 41% 0.00 in 0.00 W/m2
Foresthill Weather
 WU-history PHP script courtesy of   Juneau County Weather.
powered by Cumulus v1.9.3 (1059)
Ambient Weather VWS v14.00
Top Contact Website Map Copyright © 2007 - 2018 Foresthillweather.com Never base important decisions on this or any weather information obtained from the Internet